Regional Weather Roundup
Issued by NWS

Home | Current Version | Previous Version | Text Only | Print | Product List | Glossary Off
Versions: 1 2 3 4 5 6 7 8 9 10 11 12 13 14 15 16 17 18 19 20 21 22 23 24 25 26 27 28 29 30 31 32 33 34 35 36 37 38 39 40 41 42 43 44 45 46 47 48 49 50

000
ASUS43 KDTX 280510
RWRMI
MICHIGAN HOURLY REGIONAL WEATHER ROUNDUP
NATIONAL WEATHER SERVICE DETROIT/PONTIAC MI
100 AM EDT TUE JUL 28 2015

NOTE: "FAIR" INDICATES FEW OR NO CLOUDS BELOW 12,000 FEET WITH NO
SIGNIFICANT WEATHER AND/OR OBSTRUCTION TO VISIBILITY.

MIZ047>049-052>055-059>063-066>070-074>076-081>083-280600-
SOUTHEAST LOWER MICHIGAN

CITY           SKY/WX    TMP DP  RH WIND       PRES   REMARKS
ADRIAN         CLEAR     65  62  90 CALM      30.06S
ALMA           CLEAR     67  66  96 CALM      30.06S
ANN ARBOR      PTCLDY    64  64 100 CALM      30.06R FOG
BAD AXE        CLEAR     65  64  94 CALM      30.05S
CARO           CLEAR     65  65  98 CALM      30.05R FOG
DETROIT CITY   PTCLDY    76  63  64 CALM      30.06R
DETROIT        MOCLDY    74  64  71 CALM      30.05S
FLINT          CLEAR     68  62  81 CALM      30.05S
GROSSE ILE     PTCLDY    72  66  83 CALM      30.04S
HILLSDALE      CLEAR     65  65  99 CALM      30.07S
HOWELL         CLEAR     69  64  84 CALM      30.06S

CITY           SKY/WX    TMP DP  RH WIND       PRES   REMARKS
JACKSON        CLEAR     67  64  90 CALM      30.06S
LAMBERTVILLE   CLEAR     69  65  86 CALM      30.05S
LANSING        CLEAR     68  64  87 CALM      30.06R
LAPEER         FAIR      63  63 100 CALM      30.06R
MASON          CLEAR     65  63  96 CALM      30.06S
MONROE         PTCLDY    67  64  90 N3        30.04S
MT. CLEMENS    CLEAR     70  66  88 CALM      30.04R
PONTIAC        PTCLDY    68  61  78 CALM      30.06R
PORT HOPE        N/A     69  67  93 SE5       30.03R
PORT HURON     CLEAR     61  59  94 CALM      30.05S
TRI CITIES     MOCLDY    76  64  66 W8        30.05R
MIDLAND        FAIR      68  65  90 CALM      30.04S
TROY           PTCLDY    75  62  62 CALM      30.08R
SAGINAW HB     PTCLDY    70  64  83 CALM      30.04R
$$
MIZ043>046-050>051-056>058-064>065-071>073-077>080-280600-
SOUTHWEST LOWER MICHIGAN

CITY           SKY/WX    TMP DP  RH WIND       PRES   REMARKS
BATTLE CREEK   CLEAR     70  64  81 CALM      30.06S
BENTON HARBOR  MOCLDY    67  65  93 CALM      30.02S
BIG RAPIDS     CLEAR     67  62  85 CALM      30.06S
COLDWATER      CLEAR     64  63  94 CALM      30.06S
FREMONT        FAIR      66  64  94 CALM      30.04S
HOLLAND        PTCLDY    68  65  90 CALM      30.04S
GRAND RAPIDS   CLEAR     71  66  84 CALM      30.05S
IONIA          FAIR      67  65  93 CALM      30.04S
KALAMAZOO      PTCLDY    68  64  87 CALM      30.05S
LUDINGTON      CLEAR     64  59  84 CALM      30.04S
MARSHALL       CLEAR     65  64  95 CALM      30.06S
MOUNT PLEASANT CLEAR     68  64  84 CALM      30.05R
MUSKEGON       CLEAR     72  64  76 CALM      30.04S
SOUTH HAVEN    PTCLDY    67  65  93 CALM      30.03S
$$
MIZ016>042-280600-
NORTHERN LOWER MICHIGAN

CITY           SKY/WX    TMP DP  RH WIND       PRES   REMARKS
ALPENA         CLEAR     65  61  87 CALM      30.05R
BEAVER ISLAND  CLEAR     63  60  89 CALM      30.03F
BELLAIRE       CLEAR     62  60  94 CALM      30.05S
CADILLAC       CLEAR     63  60  92 CALM      30.08S
CHARLEVOIX     CLEAR     66  59  79 CALM      30.07S
FRANKFORT      CLEAR     61  56  85 CALM      30.04S
GAYLORD        CLEAR     67  62  84 W3        30.08S
GRAYLING       CLEAR     63  60  90 CALM      30.08S
HARBOR SPRINGS CLEAR     65  63  92 CALM      30.05S
HOUGHTON LAKE  CLEAR     68  61  78 CALM      30.07S
MANISTEE       CLEAR     61  55  82 CALM      30.05R
OSCODA         CLEAR     65  64  94 CALM      30.03S
PELLSTON       CLEAR     62  60  93 CALM      30.05R
ROGERS CITY    CLEAR     69  62  76 CALM      30.05S
TRAVERSE CITY  CLEAR     67  62  84 CALM      30.04R
$$
MIZ007>008-015-280600-
EASTERN UPPER MICHIGAN

CITY           SKY/WX    TMP DP  RH WIND       PRES   REMARKS
KINROSS        CLEAR     72  63  73 SW5       30.03S
MACKINAC ISLAN CLEAR     73  60  65 W7        30.03S
MUNISING         N/A     73  62  68 S8        30.00R
$$
MIZ004>006-011>014-085-280600-
CENTRAL UPPER MICHIGAN

CITY           SKY/WX    TMP DP  RH WIND       PRES   REMARKS
MANISTIQUE     CLEAR     61  59  94 CALM      30.01F
ESCANABA       CLEAR     63  61  94 CALM      30.01S
MENOMINEE      CLEAR     64  61  88 CALM      30.02S
SAWYER-GWINN   CLEAR     69  61  75 SW5       30.03F
$$
MIZ001>003-009>011-084-280600-
WESTERN UPPER MICHIGAN

CITY           SKY/WX    TMP DP  RH WIND       PRES   REMARKS
IRON MOUNTAIN  CLEAR     66  63  90 CALM      30.03S
HOUGHTON       CLEAR     66  62  87 NE6       29.99S
COPPER HARBOR    N/A     68  63  84 W10       29.97S
IRONWOOD       CLEAR     73  63  68 S8        29.98R
$$

ABBREVIATIONS USED IN REMARKS
   TC - TEMPERATURE IN CELSIUS
  WCI - WIND CHILL INDEX
   HX - HEAT INDEX
  VSB - VISIBILITY




USA.gov is the U.S. government's official web portal to all federal, state and local government web resources and services.